User: anonymous   Login
Location: Curupao
(10.4996°N, 66.6442°W)
Time: 12:12:53
(UTC+00:00)
Language:

MOS 1-B - Orbit

View from above orbital plane
View from above orbital plane
View from above satellite
View from above satellite

Ground track
Ground track

The orbit data is extracted from the following two-line orbital elements,

1 20478U 90013A   24203.75019150  .00000124  00000-0  12476-3 0  9993
2 20478  99.3209 249.5460 0004533 279.1037  80.9611 13.95806005675009
Epoch (UTC): 21 July 2024 18:00:16
Eccentricity: 0.0004533
inclination: 99.3209°
perigee height: 905 km
apogee height: 911 km
right ascension of ascending node: 249.5460°
argument of perigee: 279.1037°
revolutions per day: 13.95806005
mean anomaly at epoch: 80.9611°
orbit number at epoch: 67500

The dashed part of the orbit path shows where the satellite is in the earth's shadow,  

DLR